Sigfox identifier Datetime Temperature Humidity SNR
003BD2C1 2018-10-09 09:13:49 20.8 38 17.1
003BD2C1 2018-10-09 08:06:34 20.6 38 16.8
003BD2C1 2018-10-09 06:59:24 20.7 38 16.5
003BD2C1 2018-10-09 05:52:11 20.7 38 16.4
003BD2C1 2018-10-09 04:44:56 20.7 37 16
003BD2C1 2018-10-09 01:23:12 20.7 37 15.7
003BD2C1 2018-10-09 00:15:56 20.6 37 15.3
003BD2C1 2018-10-08 23:08:40 20.6 37 15
003BD2C1 2018-10-08 22:01:26 20.7 37 14.4
003BD2C1 2018-10-08 20:54:12 20.6 37 14
003BD2C1 2018-10-08 19:47:01 20.6 37 13.3
003BD2C1 2018-10-08 18:39:48 20.6 37 13.4
003BD2C1 2018-10-08 17:32:37 20.6 37 13.1
003BD2C1 2018-10-08 16:25:28 20.6 37 12.9
003BD2C1 2018-10-08 15:18:17 20.6 37 12.6
003BD2C1 2018-10-08 14:11:06 20.5 37 12.6
003BD2C1 2018-10-08 13:03:54 20.4 37 12.8
003BD2C1 2018-10-08 11:56:42 20.2 36 12.7
003BD2C1 2018-10-08 10:49:33 20.2 36 17.5
003BD2C1 2018-10-08 08:35:13 20.2 37 17.5
003BD2C1 2018-10-08 07:28:04 20.2 37 17.5
003BD2C1 2018-10-08 06:20:53 20.2 37 17.5
003BD2C1 2018-10-08 05:13:43 20.3 37 17.5
003BD2C1 2018-10-08 04:06:31 20.3 38 17.5
003BD2C1 2018-10-08 02:59:19 20.4 38 17.5
003BD2C1 2018-10-08 01:52:09 20.4 38 17.5
003BD2C1 2018-10-08 00:45:01 20.4 38 17.5
003BD2C1 2018-10-07 23:37:49 20.4 39 17.6
003BD2C1 2018-10-07 22:30:41 20.4 39 17.6
003BD2C1 2018-10-07 21:23:30 20.4 39 17.6
003BD2C1 2018-10-07 20:16:23 20.4 39 17.6
003BD2C1 2018-10-07 19:09:15 20.4 39 17.5
003BD2C1 2018-10-07 18:02:07 20.5 39 17.5
003BD2C1 2018-10-07 16:54:55 20.6 39 17.6
003BD2C1 2018-10-07 15:47:47 20.5 39 17.6
003BD2C1 2018-10-07 14:40:37 20.6 39 17.6
003BD2C1 2018-10-07 13:33:25 20.6 39 17.7
003BD2C1 2018-10-07 12:26:15 20.6 39 17.7
003BD2C1 2018-10-07 11:19:06 20.6 39 17.6
003BD2C1 2018-10-07 10:11:56 20.6 39 17.6
003BD2C1 2018-10-07 09:04:42 20.6 39 17.6
003BD2C1 2018-10-07 07:57:31 20.6 40 17.6
003BD2C1 2018-10-07 06:50:21 20.6 40 17.7
003BD2C1 2018-10-07 05:43:09 20.6 40 12.9
003BD2C1 2018-10-07 04:36:02 20.7 40 12.9
003BD2C1 2018-10-07 03:28:57 20.7 40 12.8
003BD2C1 2018-10-07 02:21:47 20.8 40 12.9
003BD2C1 2018-10-07 01:14:41 20.8 40 12.9
003BD2C1 2018-10-07 00:07:31 20.8 40 12.9
003BD2C1 2018-10-06 23:00:20 20.8 40 13
003BD2C1 2018-10-06 21:53:09 20.8 40 13
003BD2C1 2018-10-06 20:45:58 20.8 40 13
003BD2C1 2018-10-06 19:38:48 20.8 40 12.8
003BD2C1 2018-10-06 18:31:40 20.8 40 12.8
003BD2C1 2018-10-06 17:24:28 20.8 40 12.8
003BD2C1 2018-10-06 16:17:18 20.8 40 12.3
003BD2C1 2018-10-06 15:10:07 20.8 40 12.5
003BD2C1 2018-10-06 14:02:56 20.8 40 14.3
003BD2C1 2018-10-06 12:55:45 20.8 40 14.5
003BD2C1 2018-10-06 11:48:35 20.8 40 14.8
003BD2C1 2018-10-06 10:41:24 20.9 40 15.1
003BD2C1 2018-10-06 09:34:14 21 40 16
003BD2C1 2018-10-06 08:27:01 21 40 15.9
003BD2C1 2018-10-06 07:19:51 21 40 16
003BD2C1 2018-10-06 06:12:37 21 40 16.6
003BD2C1 2018-10-06 05:05:25 21 41 16.6
003BD2C1 2018-10-06 03:58:10 21.1 41 16.8
003BD2C1 2018-10-06 02:50:57 21.1 41 16.7
003BD2C1 2018-10-06 01:43:47 21.2 41 16.6
003BD2C1 2018-10-06 00:36:31 21.2 41 16.7
003BD2C1 2018-10-05 23:29:19 21.3 41 16.8
003BD2C1 2018-10-05 22:22:04 21.3 41 16.8
003BD2C1 2018-10-05 21:14:53 21.3 41 17.3
003BD2C1 2018-10-05 20:07:37 21.4 41 17.3
003BD2C1 2018-10-05 19:00:20 21.4 41 17.3
003BD2C1 2018-10-05 17:53:03 21.4 41 17.8
003BD2C1 2018-10-05 16:45:55 21.3 40 18
003BD2C1 2018-10-05 15:38:38 21.3 40 17.9
003BD2C1 2018-10-05 14:31:25 21.3 39 18.1
003BD2C1 2018-10-05 13:24:13 21.1 37 18
003BD2C1 2018-10-05 12:17:02 21 36 18.2
003BD2C1 2018-10-05 11:09:56 20.8 35 18.2
003BD2C1 2018-10-05 10:02:44 20.8 34 17.6
003BD2C1 2018-10-05 08:55:31 20.7 34 17.5
003BD2C1 2018-10-05 07:48:20 20.7 33 17.3
003BD2C1 2018-10-05 06:41:10 20.8 33 17.2
003BD2C1 2018-10-05 05:34:01 20.8 33 16.3
003BD2C1 2018-10-05 04:26:52 20.8 33 16.6
003BD2C1 2018-10-05 03:19:44 20.8 33 16.6
003BD2C1 2018-10-05 02:12:34 21 34 16
003BD2C1 2018-10-05 01:05:24 21 34 19
003BD2C1 2018-10-04 23:58:14 21 34 19.4
003BD2C1 2018-10-04 22:51:01 21 33 19.6
003BD2C1 2018-10-04 21:43:46 21 33 19.7
003BD2C1 2018-10-04 20:36:35 21.1 33 19.9
003BD2C1 2018-10-04 19:29:27 21.2 33 20
003BD2C1 2018-10-04 18:22:18 21.3 33 20.2
003BD2C1 2018-10-04 17:15:07 21.3 33 20.1
003BD2C1 2018-10-04 15:00:52 21 31 20.3
003BD2C1 2018-10-04 12:46:36 20.8 32 20.5
003BD2C1 2018-10-04 11:39:24 20.6 33 20.3
003BD2C1 2018-10-04 10:32:14 20.6 34 20.4
003BD2C1 2018-10-04 09:25:03 20.2 35 20.7
003BD2C1 2018-10-04 08:17:53 20.2 35 20.9
003BD2C1 2018-10-04 07:10:43 20.2 37 21.2
003BD2C1 2018-10-04 06:03:32 20.2 38 21.4
003BD2C1 2018-10-04 04:56:23 20.2 38 21.7
003BD2C1 2018-10-04 03:49:10 20.3 38 22.1
003BD2C1 2018-10-04 02:41:54 20.4 39 22.6
003BD2C1 2018-10-04 01:34:40 20.4 39 23.1
003BD2C1 2018-10-04 00:27:26 20.4 40 23.7
003BD2C1 2018-10-03 23:20:08 20.6 40 24.4
003BD2C1 2018-10-03 22:12:53 20.6 41 25.2
003BD2C1 2018-10-03 21:05:38 20.6 41 26.3
003BD2C1 2018-10-03 19:58:28 20.8 41 28
003BD2C1 2018-10-03 18:51:13 20.8 41 24.3
003BD2C1 2018-10-03 16:36:34 21 49 0